EW5780 Weather Reports


Display with metric or nautical units.
time (UTC)temp
F
wind
direction
speed
MPH
gust
MPH
rain 1hr
in
rain 24hr
in
rain mn
in
humidity
%
barometer
mb
20190421080254 43 224 0.0 0.0 0.00 0.00 0.00 88 1017.6
20190421075753 44 224 0.0 0.0 0.00 0.00 0.00 88 1017.3
20190421075252 44 224 0.0 0.0 0.00 0.00 0.00 87 1017.6
20190421074751 44 224 0.0 0.0 0.00 0.00 0.00 87 1017.3
20190421074249 44 224 0.0 0.0 0.00 0.00 0.00 87 1017.3
20190421073749 44 224 0.0 0.0 0.00 0.00 0.00 87 1017.3
20190421073248 44 224 0.0 0.0 0.00 0.00 0.00 86 1017.3
20190421072747 44 224 0.0 0.0 0.00 0.00 0.00 86 1017.3
20190421072248 44 224 0.0 0.0 0.00 0.00 0.00 86 1017.3
20190421071745 45 224 0.0 0.0 0.00 0.00 0.00 85 1017.3
20190421071244 45 224 0.0 1.0 0.00 0.00 0.00 85 1017.3
20190421070743 45 224 0.0 1.0 0.00 0.00 0.00 85 1017.3
20190421070244 45 224 0.0 1.0 0.00 0.00 0.00 85 1016.9
20190421065644 45 224 1.0 1.0 0.00 0.00 0.00 85 1016.9
20190421065143 45 224 0.0 1.0 0.00 0.00 0.00 85 1016.9
20190421064643 45 224 0.0 1.0 0.00 0.00 0.00 84 1016.9
20190421064142 46 224 0.0 1.0 0.00 0.00 0.00 84 1016.9
20190421063641 46 224 0.0 2.0 0.00 0.00 0.00 84 1016.9
20190421063140 46 224 0.0 2.0 0.00 0.00 0.00 84 1016.9
20190421062639 46 224 0.0 2.0 0.00 0.00 0.00 82 1016.6
20190421062138 47 224 1.0 4.0 0.00 0.00 0.00 82 1016.6
20190421061637 47 225 0.0 4.0 0.00 0.00 0.00 81 1016.6
20190421061137 47 225 0.0 4.0 0.00 0.00 0.00 81 1016.6
20190421060635 48 225 0.0 4.0 0.00 0.00 0.00 81 1016.6
20190421060134 48 296 0.0 0.0 0.00 0.00 0.00 82 1016.3
20190421055636 48 296 0.0 0.0 0.00 0.00 0.00 81 1016.3
20190421055133 48 296 0.0 0.0 0.00 0.00 0.00 81 1016.3
20190421054632 48 296 0.0 0.0 0.00 0.00 0.00 80 1016.3
20190421054131 48 296 0.0 0.0 0.00 0.00 0.00 79 1016.3
20190421053631 49 296 0.0 3.0 0.00 0.00 0.00 78 1016.3
20190421053130 49 296 0.0 3.0 0.00 0.00 0.00 77 1015.9
20190421052629 49 296 0.0 3.0 0.00 0.00 0.00 77 1015.9
20190421052128 49 296 0.0 3.0 0.00 0.00 0.00 77 1015.9
20190421051627 50 306 0.0 0.0 0.00 0.00 0.00 76 1015.9
20190421051126 50 306 0.0 0.0 0.00 0.00 0.00 75 1015.9
20190421050625 50 306 0.0 1.0 0.00 0.00 0.00 76 1015.9
20190421050124 50 306 0.0 1.0 0.00 0.00 0.00 75 1015.9
20190421045624 50 306 0.0 1.0 0.00 0.00 0.00 75 1015.9
20190421045123 50 306 1.0 1.0 0.00 0.00 0.00 75 1015.6
20190421044622 51 306 0.0 2.0 0.00 0.00 0.00 75 1015.6
20190421044121 51 306 0.0 2.0 0.00 0.00 0.00 74 1015.6
20190421043620 51 306 0.0 2.0 0.00 0.00 0.00 74 1015.6
20190421043120 51 306 1.0 2.0 0.00 0.00 0.00 74 1015.6
20190421042619 51 306 0.0 2.0 0.00 0.00 0.00 74 1015.6
20190421042118 51 307 1.0 2.0 0.00 0.00 0.00 74 1015.2
20190421041617 51 298 2.0 3.0 0.00 0.00 0.00 74 1015.2
20190421041116 51 229 0.0 3.0 0.00 0.00 0.00 73 1015.2
20190421040615 51 234 1.0 3.0 0.00 0.00 0.00 73 1014.9
20190421040114 52 284 0.0 3.0 0.00 0.00 0.00 73 1014.9
20190421035613 52 193 0.0 4.0 0.00 0.00 0.00 73 1014.9
20190421035112 52 202 1.0 4.0 0.00 0.00 0.00 73 1014.6
20190421034611 52 217 0.0 4.0 0.00 0.00 0.00 72 1014.6
20190421034111 52 220 2.0 4.0 0.00 0.00 0.00 72 1014.6
20190421033610 52 271 0.0 4.0 0.00 0.00 0.00 72 1014.6
20190421033109 52 270 0.0 4.0 0.00 0.00 0.00 71 1014.2
20190421032609 53 324 0.0 4.0 0.00 0.00 0.00 71 1014.2
20190421032108 53 326 1.0 5.0 0.00 0.00 0.00 71 1014.2
20190421031606 53 314 1.0 5.0 0.00 0.00 0.00 71 1014.2
20190421031106 53 305 1.0 5.0 0.00 0.00 0.00 70 1013.9
20190421030605 53 235 3.0 5.0 0.00 0.00 0.00 70 1013.9
20190421030104 53 258 1.0 4.0 0.00 0.00 0.00 70 1013.9
20190421025603 54 254 1.0 4.0 0.00 0.00 0.00 69 1013.9
20190421025102 54 277 2.0 3.0 0.00 0.00 0.00 69 1013.9
20190421024601 54 270 1.0 3.0 0.00 0.00 0.00 68 1013.5
20190421024100 54 290 0.0 3.0 0.00 0.00 0.00 68 1013.5
20190421023600 55 288 0.0 3.0 0.00 0.00 0.00 67 1013.5
20190421023059 55 347 1.0 5.0 0.00 0.00 0.00 67 1013.5
20190421022558 55 261 1.0 9.0 0.00 0.00 0.00 67 1013.5
20190421022057 55 279 1.0 9.0 0.00 0.00 0.00 67 1013.5
20190421021556 55 302 4.0 9.0 0.00 0.00 0.00 67 1013.2
20190421021055 55 283 3.0 9.0 0.00 0.00 0.00 66 1013.2
20190421020554 55 53 1.0 7.0 0.00 0.00 0.00 66 1013.2
20190421020053 55 318 2.0 10.0 0.00 0.00 0.00 66 1012.9
20190421015553 55 351 2.0 10.0 0.00 0.00 0.00 66 1012.9
20190421015052 56 320 2.0 18.0 0.00 0.00 0.00 65 1012.9
20190421014551 56 311 3.0 18.0 0.00 0.00 0.00 65 1012.9
20190421014050 56 341 2.0 18.0 0.00 0.00 0.00 65 1012.9
20190421013549 56 342 6.0 18.0 0.00 0.00 0.00 64 1012.9
20190421013048 56 302 4.0 12.0 0.00 0.00 0.00 64 1012.9
20190421012548 56 272 4.0 11.0 0.00 0.00 0.00 63 1012.5
20190421012047 57 322 3.0 11.0 0.00 0.00 0.00 63 1012.5
20190421011546 57 300 3.0 13.0 0.00 0.00 0.00 63 1012.5
20190421011045 57 235 3.0 13.0 0.00 0.00 0.00 62 1012.2
20190421010544 57 334 3.0 13.0 0.00 0.00 0.00 62 1012.2
20190421010043 57 345 3.0 13.0 0.00 0.00 0.00 62 1012.2
20190421005542 57 329 3.0 13.0 0.00 0.00 0.00 61 1011.9
20190421005041 58 353 4.0 13.0 0.00 0.00 0.00 61 1012.2
20190421004540 58 335 3.0 16.0 0.00 0.00 0.00 60 1012.2
20190421004040 58 9 4.0 16.0 0.00 0.00 0.00 59 1012.2
20190421003538 59 326 5.0 16.0 0.00 0.00 0.00 59 1012.2
20190421003037 59 347 5.0 17.0 0.00 0.00 0.00 57 1011.9
20190421002536 60 349 3.0 17.0 0.00 0.00 0.00 56 1011.9
20190421002036 61 0 3.0 17.0 0.00 0.00 0.00 55 1011.9
20190421001536 61 335 6.0 17.0 0.00 0.00 0.00 54 1011.5
20190421001034 61 318 2.0 15.0 0.00 0.00 0.00 55 1011.5
20190421000604 61 36 4.0 15.0 0.00 0.00 0.00 53 1011.5
20190421000032 62 326 5.0 10.0 0.00 0.00 0.00 53 1011.5
20190420235531 62 339 3.0 10.0 0.00 0.00 0.00 52 1011.5
20190420235030 62 304 3.0 11.0 0.00 0.00 0.00 51 1011.5
20190420234529 63 318 4.0 11.0 0.00 0.00 0.00 51 1011.2
20190420234029 63 320 2.0 11.0 0.00 0.00 0.00 52 1011.2
20190420233527 63 344 3.0 11.0 0.00 0.00 0.00 51 1011.2
20190420233026 63 317 3.0 12.0 0.00 0.00 0.00 51 1011.2
20190420232526 63 320 3.0 12.0 0.00 0.00 0.00 51 1011.2
20190420232025 63 313 3.0 12.0 0.00 0.00 0.00 51 1011.2
20190420231524 63 55 4.0 12.0 0.00 0.00 0.00 51 1011.2
20190420231023 63 30 3.0 12.0 0.00 0.00 0.00 50 1011.2
20190420230522 63 306 4.0 15.0 0.00 0.00 0.00 50 1011.2
20190420230022 64 2 2.0 15.0 0.00 0.00 0.00 50 1011.2
20190420225521 64 324 5.0 15.0 0.00 0.00 0.00 49 1011.2
20190420225020 64 3 3.0 13.0 0.00 0.00 0.00 50 1011.2
20190420224520 64 321 3.0 15.0 0.00 0.00 0.00 50 1011.2
20190420224019 64 320 4.0 15.0 0.00 0.00 0.00 48 1011.2
20190420223518 64 327 4.0 15.0 0.00 0.00 0.00 50 1011.2
20190420223017 64 311 5.0 15.0 0.00 0.00 0.00 48 1011.2
20190420222516 64 332 2.0 11.0 0.00 0.00 0.00 48 1011.2
20190420222016 65 324 4.0 16.0 0.00 0.00 0.00 48 1011.2
20190420221515 65 38 2.0 16.0 0.00 0.00 0.00 47 1011.5
20190420221014 64 6 2.0 16.0 0.00 0.00 0.00 48 1011.5
20190420220513 64 296 2.0 16.0 0.00 0.00 0.00 49 1011.5
20190420220015 64 331 2.0 16.0 0.00 0.00 0.00 49 1011.5
20190420215511 64 78 2.0 16.0 0.00 0.00 0.00 47 1011.5
20190420215010 64 331 3.0 16.0 0.00 0.00 0.00 48 1011.5
20190420214510 64 342 4.0 16.0 0.00 0.00 0.00 47 1011.5
20190420214008 65 341 3.0 10.0 0.00 0.00 0.00 48 1011.5
20190420213507 65 330 3.0 10.0 0.00 0.00 0.00 46 1011.5
20190420213006 65 339 3.0 9.0 0.00 0.00 0.00 47 1011.5
20190420212505 65 319 2.0 9.0 0.00 0.00 0.00 48 1011.5
20190420212004 65 328 2.0 11.0 0.00 0.00 0.00 48 1011.5
20190420211503 64 339 3.0 11.0 0.00 0.00 0.00 48 1011.5
20190420211003 64 348 2.0 13.0 0.00 0.00 0.00 49 1011.9
20190420210502 64 328 3.0 13.0 0.00 0.00 0.00 49 1011.9
20190420210001 64 292 2.0 13.0 0.00 0.00 0.00 50 1011.5
20190420205500 64 44 2.0 13.0 0.00 0.00 0.00 50 1011.9
20190420204959 64 327 3.0 8.0 0.00 0.00 0.00 51 1011.5
20190420204458 64 341 2.0 8.0 0.00 0.00 0.00 51 1011.5
20190420203957 64 311 3.0 10.0 0.00 0.00 0.00 50 1011.5
20190420203456 64 250 2.0 10.0 0.00 0.00 0.00 51 1011.5
20190420202955 64 300 3.0 10.0 0.00 0.00 0.00 52 1011.5
20190420202454 63 55 1.0 8.0 0.00 0.00 0.00 54 1011.9
20190420201953 63 304 2.0 8.0 0.00 0.00 0.00 54 1011.9
20190420201452 63 218 2.0 8.0 0.00 0.00 0.00 54 1011.9
20190420200952 63 144 3.0 9.0 0.00 0.00 0.00 54 1011.9
20190420200451 63 233 3.0 9.0 0.00 0.00 0.00 56 1011.9
20190420195950 62 298 2.0 9.0 0.00 0.00 0.00 56 1011.9
20190420195448 62 261 2.0 9.0 0.00 0.00 0.00 57 1011.9
20190420194947 62 334 2.0 10.0 0.00 0.00 0.00 59 1011.9
20190420194446 62 315 2.0 10.0 0.00 0.00 0.00 59 1011.9
20190420193945 62 288 3.0 11.0 0.00 0.00 0.00 59 1012.2
20190420193445 61 346 3.0 11.0 0.00 0.00 0.00 60 1012.2
20190420192944 61 276 2.0 11.0 0.00 0.00 0.00 62 1011.9
20190420192443 60 315 2.0 13.0 0.00 0.00 0.00 64 1011.9
20190420191942 60 253 2.0 13.0 0.00 0.00 0.00 64 1012.2
20190420191441 59 336 2.0 13.0 0.00 0.00 0.00 64 1012.2
20190420190940 59 321 3.0 15.0 0.00 0.00 0.00 64 1012.2
20190420190439 58 319 4.0 15.0 0.00 0.00 0.00 67 1012.2
20190420185939 58 96 2.0 15.0 0.00 0.00 0.00 66 1012.2
20190420185438 58 234 2.0 13.0 0.00 0.00 0.00 67 1012.2
20190420184937 58 342 4.0 13.0 0.00 0.00 0.00 68 1012.2
20190420184436 58 309 2.0 8.0 0.00 0.00 0.00 69 1012.2
20190420183935 58 345 2.0 14.0 0.00 0.00 0.00 69 1012.2
20190420183434 58 322 2.0 14.0 0.00 0.00 0.00 68 1012.2
20190420182933 58 336 3.0 14.0 0.00 0.00 0.00 67 1012.2
20190420182432 58 343 1.0 14.0 0.00 0.00 0.00 67 1012.2
20190420181931 59 344 2.0 9.0 0.00 0.00 0.00 67 1012.2
20190420181431 59 270 2.0 9.0 0.00 0.00 0.00 66 1012.2
20190420180929 60 184 1.0 9.0 0.00 0.00 0.00 65 1012.2
20190420180429 60 294 2.0 9.0 0.00 0.00 0.00 66 1011.9
20190420175928 60 152 2.0 9.0 0.00 0.00 0.00 66 1011.9
20190420175427 60 319 4.0 9.0 0.00 0.00 0.00 66 1011.9
20190420174927 59 174 3.0 9.0 0.00 0.00 0.00 66 1011.9
20190420174426 59 249 2.0 7.0 0.00 0.00 0.00 67 1011.9
20190420173925 59 327 2.0 7.0 0.00 0.00 0.00 66 1011.9
20190420173424 59 356 2.0 7.0 0.00 0.00 0.00 68 1011.9
20190420172923 59 28 2.0 7.0 0.00 0.00 0.00 67 1011.9
20190420172422 59 11 2.0 6.0 0.00 0.00 0.00 69 1011.9
20190420171921 58 300 3.0 11.0 0.00 0.00 0.00 70 1011.5
20190420171420 58 70 2.0 11.0 0.00 0.00 0.00 70 1011.5
20190420170920 58 357 3.0 11.0 0.00 0.00 0.00 71 1011.9
20190420170419 57 344 3.0 11.0 0.00 0.00 0.00 72 1011.5
20190420165918 57 332 2.0 8.0 0.00 0.00 0.00 73 1011.5
20190420165416 56 1 2.0 8.0 0.00 0.00 0.00 74 1011.5
20190420164916 56 286 2.0 8.0 0.00 0.00 0.00 75 1011.5
20190420164415 55 261 2.0 8.0 0.00 0.00 0.00 76 1011.5
20190420163914 55 285 2.0 7.0 0.00 0.00 0.00 76 1011.5
20190420163413 55 286 2.0 9.0 0.00 0.00 0.00 76 1011.5
20190420162913 55 303 1.0 9.0 0.00 0.00 0.00 77 1011.2
20190420162412 54 309 2.0 9.0 0.00 0.00 0.00 78 1011.2
20190420161911 54 346 2.0 9.0 0.00 0.00 0.00 77 1011.2
20190420161410 54 257 1.0 7.0 0.00 0.00 0.00 78 1011.2
20190420160909 54 240 1.0 7.0 0.00 0.00 0.00 78 1011.2
20190420160409 54 293 2.0 7.0 0.00 0.00 0.00 78 1011.2
20190420155908 54 266 2.0 6.0 0.00 0.00 0.00 78 1011.2
20190420155407 54 237 2.0 6.0 0.00 0.00 0.00 79 1011.2
20190420154906 54 216 2.0 7.0 0.00 0.00 0.00 79 1011.2
20190420154405 53 287 2.0 7.0 0.00 0.00 0.00 79 1011.2
20190420153904 53 329 2.0 7.0 0.00 0.00 0.00 80 1011.2
20190420153403 54 253 2.0 7.0 0.00 0.00 0.00 79 1011.2
20190420152902 54 329 2.0 8.0 0.00 0.00 0.00 80 1011.2
20190420152401 53 317 3.0 8.0 0.00 0.00 0.00 81 1011.2
20190420151900 53 350 2.0 8.0 0.00 0.00 0.00 82 1011.2
20190420151400 52 295 2.0 8.0 0.00 0.00 0.00 83 1011.2
20190420150858 52 283 1.0 6.0 0.00 0.00 0.00 84 1011.5
20190420150358 51 299 2.0 6.0 0.00 0.00 0.00 84 1011.5
20190420145856 51 358 2.0 6.0 0.00 0.00 0.00 84 1011.2
20190420145355 51 326 2.0 10.0 0.00 0.00 0.00 83 1011.2
20190420144854 51 299 2.0 11.0 0.00 0.00 0.00 83 1011.2
20190420144354 51 294 2.0 11.0 0.00 0.00 0.00 83 1011.2
20190420143853 51 349 4.0 11.0 0.00 0.00 0.00 83 1011.2
20190420143352 52 328 2.0 11.0 0.00 0.00 0.00 82 1010.8
20190420142852 52 331 4.0 11.0 0.00 0.00 0.00 82 1010.8
20190420142351 52 356 2.0 9.0 0.00 0.00 0.00 81 1010.8
20190420141850 53 324 3.0 6.0 0.00 0.00 0.00 80 1010.8
20190420141350 53 340 3.0 5.0 0.00 0.00 0.00 79 1010.5
20190420140849 53 266 1.0 3.0 0.00 0.00 0.00 79 1010.5
20190420140348 53 255 1.0 3.0 0.00 0.00 0.00 79 1010.5
20190420135847 53 245 1.0 4.0 0.00 0.00 0.00 79 1010.2
20190420135346 54 260 1.0 4.0 0.00 0.00 0.00 78 1010.2
20190420134846 54 313 1.0 4.0 0.00 0.00 0.00 77 1010.2
20190420134345 54 297 3.0 5.0 0.00 0.00 0.00 77 1010.2
20190420133844 54 304 1.0 5.0 0.00 0.00 0.00 76 1010.2
20190420133343 55 304 0.0 5.0 0.00 0.00 0.00 76 1009.8
20190420132843 55 322 2.0 5.0 0.00 0.00 0.00 75 1009.5
20190420132341 55 319 2.0 4.0 0.00 0.00 0.00 74 1009.5
20190420131841 55 321 2.0 4.0 0.00 0.00 0.00 74 1009.5
20190420131340 55 328 1.0 4.0 0.00 0.00 0.00 74 1009.5
20190420130839 55 328 1.0 4.0 0.00 0.00 0.00 74 1009.1
20190420130338 55 317 2.0 2.0 0.00 0.00 0.00 74 1009.1
20190420125838 55 317 0.0 1.0 0.00 0.00 0.00 75 1009.1
20190420125337 55 317 0.0 1.0 0.00 0.00 0.00 75 1009.1
20190420124835 55 317 0.0 1.0 0.00 0.00 0.00 76 1008.8
20190420124335 55 321 0.0 1.0 0.00 0.00 0.00 78 1008.8
20190420123834 55 238 0.0 1.0 0.00 0.00 0.00 80 1009.1
20190420123333 55 238 0.0 1.0 0.00 0.00 0.00 80 1009.1
20190420122832 55 238 0.0 1.0 0.00 0.00 0.00 79 1008.8
20190420122331 55 238 0.0 1.0 0.00 0.00 0.00 78 1008.8
20190420121831 55 238 0.0 1.0 0.00 0.00 0.00 78 1008.8
20190420121330 55 238 0.0 1.0 0.00 0.00 0.00 77 1008.8
20190420120829 55 238 0.0 0.0 0.00 0.00 0.00 77 1008.8
20190420120328 55 238 0.0 0.0 0.00 0.00 0.00 77 1008.8
20190420115827 55 238 0.0 0.0 0.00 0.00 0.00 77 1008.8
20190420115326 55 238 0.0 0.0 0.00 0.00 0.00 77 1008.8
20190420114825 55 239 0.0 0.0 0.00 0.00 0.00 77 1008.8
20190420114324 55 239 0.0 0.0 0.00 0.00 0.00 76 1008.8
20190420113824 56 239 0.0 0.0 0.00 0.00 0.00 76 1008.8
20190420113323 56 239 0.0 3.0 0.00 0.00 0.00 75 1008.8
20190420112822 56 239 0.0 3.0 0.00 0.00 0.00 75 1008.8
20190420112322 56 239 0.0 3.0 0.00 0.00 0.00 75 1008.8
20190420111821 57 251 2.0 3.0 0.00 0.00 0.00 74 1008.8
20190420111320 57 271 1.0 2.0 0.00 0.00 0.00 72 1008.8
20190420110820 58 304 1.0 5.0 0.00 0.00 0.00 70 1008.8
20190420110319 58 331 0.0 5.0 0.00 0.00 0.00 68 1008.8
20190420105818 58 331 0.0 5.0 0.00 0.00 0.00 67 1008.8
20190420105317 58 328 2.0 5.0 0.00 0.00 0.00 66 1008.8
20190420104816 58 276 0.0 6.0 0.00 0.00 0.00 68 1008.5
20190420104316 58 276 0.0 6.0 0.00 0.00 0.00 68 1008.8
20190420103814 57 301 1.0 6.0 0.00 0.00 0.00 68 1008.8
20190420103313 57 309 2.0 6.0 0.00 0.00 0.00 70 1008.8
20190420102812 57 312 3.0 5.0 0.00 0.00 0.00 72 1008.8
20190420102310 56 221 0.0 0.0 0.00 0.00 0.00 72 1008.8
20190420101810 56 220 0.0 0.0 0.00 0.00 0.00 74 1008.8
20190420101309 56 221 0.0 1.0 0.00 0.00 0.00 75 1008.8
20190420100808 56 221 0.0 1.0 0.00 0.00 0.00 77 1008.8
20190420100307 55 221 0.0 1.0 0.00 0.00 0.00 78 1008.8
20190420095806 55 220 0.0 0.0 0.00 0.00 0.00 80 1008.8
20190420095305 55 220 0.0 0.0 0.00 0.00 0.00 80 1008.8
20190420094804 55 220 0.0 0.0 0.00 0.00 0.00 81 1008.8
20190420094303 55 220 0.0 1.0 0.00 0.00 0.00 81 1008.8
20190420093803 55 220 0.0 1.0 0.00 0.00 0.00 81 1008.8
20190420093302 55 220 0.0 1.0 0.00 0.00 0.00 81 1009.1
20190420092801 55 220 0.0 1.0 0.00 0.00 0.00 80 1009.1
20190420092301 55 220 0.0 0.0 0.00 0.00 0.00 80 1009.1
20190420091259 55 220 0.0 3.0 0.00 0.00 0.00 81 1008.8
20190420090758 55 220 0.0 3.0 0.00 0.00 0.00 81 1009.1
20190420090257 55 220 0.0 3.0 0.00 0.00 0.00 82 1009.1
20190420085757 54 220 2.0 3.0 0.00 0.00 0.00 81 1009.1
20190420085256 54 221 1.0 2.0 0.00 0.00 0.00 83 1009.1
20190420084754 54 223 1.0 2.0 0.00 0.00 0.00 82 1009.1
20190420084254 54 217 1.0 2.0 0.00 0.00 0.00 82 1009.5
20190420083753 54 213 1.0 1.0 0.00 0.00 0.00 81 1009.5
20190420083252 55 212 0.0 0.0 0.00 0.00 0.00 80 1009.5
20190420082751 55 212 0.0 0.0 0.00 0.00 0.00 79 1009.5
20190420082250 55 212 0.0 0.0 0.00 0.00 0.00 79 1009.5
20190420081749 55 212 0.0 0.0 0.00 0.00 0.00 78 1009.8
20190420081249 55 212 0.0 0.0 0.00 0.00 0.00 78 1009.8
20190420080748 56 212 0.0 3.0 0.00 0.00 0.00 77 1009.8